Weather in Clearwater

United States     27°57′56″N   82°48′00″W
temp.,
°C
wind,
m/s
gust,
m/s
humid.,
%
clouds,
%
prec.,
mm/h
press.,
hPa
HPBL,
m
17 may, mon
mon1723:00+23e1011537 0.0 1021966
02:00+22e7106079 0.0 1021780
05:00+21e69665 0.0 1020489
08:00+21e586696 0.0 1021434
11:00+25ese56463 0.0 10211325
14:00+29sse46370 0.0 10191135
17:00+27nw854628 0.0 1017494
20:00+26nnw455093 0.0 1019520
18 may, tue
tue1823:00+25ese10115572 0.0 1020949
02:00+23ese81159100 0.0 1019705
05:00+22ese61071100 0.0 1019617
08:00+22e61075100 0.0 1021561
11:00+26ese57537 0.0 10211292
14:00+28ene995493 0.0 10191299
17:00+28ene10115228 0.0 10171065
20:00+29e9114389 0.0 10181052
19 may, wed
wed1923:00+24e913723 0.0 1020749
02:00+23e813785 0.0 1019751
05:00+22e7127846 0.0 1019733
08:00+23e711725 0.0 1020617
11:00+27e69533 0.0 10201335
14:00+31ese36402 0.0 10181325
17:00+30e1213466 0.0 1016952
20:00+27e1112625 0.0 10191087
20 may, thu
thu2023:00+25e10136914 0.0 10201019
02:00+23e9137429 0.0 1020932
05:00+23e81269100 0.0 10201010
08:00+24e9126017 0.0 10211171
11:00+27e9104665 0.0 10211518
14:00+30e91038100 0.0 10201286
17:00+29e10113951 0.0 10191287
20:00+26e11125032 0.0 10211541
21 may, fri
fri2123:00+24ene8125518 0.0 10221679
02:00+23ene812650 0.0 10221186
05:00+24ene812560 0.0 10211259
08:00+23ene9126279 0.0 1023991
11:00+27e9104645 0.0 10231361
14:00+31e79355 0.0 10211206
17:00+31e1011345 0.0 10201379
20:00+28e11114914 0.0 10221429